Regional Weather Roundup
Issued by NWS

Home | Current Version | Previous Version | Text Only | Print | Product List | Glossary Off
Versions: 1 2 3 4 5 6 7 8 9 10 11 12 13 14 15 16 17 18 19 20 21 22 23 24 25 26 27 28 29 30 31 32 33 34 35 36 37 38 39 40 41 42 43 44 45 46 47 48 49 50

000
ASUS43 KMKX 280411
RWRWI

WISCONSIN REGIONAL WEATHER ROUNDUP
NATIONAL WEATHER SERVICE MILWAUKEE/SULLIVAN WI
1100 PM CDT SUN MAY 27 2018

NOTE: "FAIR" INDICATES FEW OR NO CLOUDS BELOW 12,000 FEET WITH NO
SIGNIFICANT WEATHER AND/OR OBSTRUCTIONS TO VISIBILITY.

WIZ001-002-006>008-014>016-023>028-280500-
NORTHWEST WISCONSIN

CITY           SKY/WX    TMP DP  RH WIND       PRES   REMARKS
SUPERIOR ARPT  MOCLDY    53  51  94 CALM      29.86R
ASHLAND        FAIR      59  58  96 CALM      29.85F
HAYWARD        FAIR      67  65  93 N3        29.87S
SIREN          FAIR      74  60  62 CALM      29.84S
CUMBERLAND     MOCLDY    73  57  56 E6        29.85F
RICE LAKE      MOCLDY    74  61  63 CALM      29.87S
CHETEK         CLOUDY    71  64  80 CALM      29.86S
LADYSMITH      FAIR      68  62  80 E3        29.90S
EAU CLAIRE     FAIR      71  62  73 E5        29.83S
MENOMONIE      FAIR      80  55  42 S6        29.83F HX  80
NEW RICHMOND   FAIR      78  55  45 CALM      29.83S
OSCEOLA        FAIR      79  57  47 S8        29.84S HX  80
$$

WIZ003>005-009-010-017-018-280500-
NORTH CENTRAL WISCONSIN

CITY           SKY/WX    TMP DP  RH WIND       PRES   REMARKS
MANITOWISH WTR FAIR      63  63 100 CALM      29.91F
ARBOR VITAE    FAIR      65  61  84 CALM      29.92S
WOODRUFF       FAIR      65  61  84 CALM      29.92S
RHINELANDER    FAIR      66  58  75 CALM      29.93R
EAGLE RIVER    FAIR      64  58  81 CALM      29.92S
LAND O LAKES   FAIR      61  59  94 CALM      29.94S
PHILLIPS       FAIR      65  62  90 CALM      29.90S
TOMAHAWK       FAIR      63  59  86 CALM      29.92S
MEDFORD        FAIR      65  59  81 CALM      29.91S
MERRILL        FAIR      67  64  89 CALM      29.92R
$$

WIZ029-030-035-036-043>047-280500-
CENTRAL WISCONSIN

CITY           SKY/WX    TMP DP  RH WIND       PRES   REMARKS
WAUSAU         FAIR      72  60  66 E5        29.89S
MOSINEE        FAIR      68  61  77 CALM      29.92S
MARSHFIELD     FAIR      73  61  65 CALM      29.90R
STEVENS POINT  FAIR      66  61  85 CALM      29.91S
WAUPACA        FAIR      72  62  71 CALM      29.90S
WAUTOMA        FAIR      69  65  86 CALM      29.90R
WISC RAPIDS    FAIR      68  61  78 CALM      29.91R
CAMP DOUGLAS   FAIR      66  65  97 E5        29.89S
$$

WIZ011>013-019>022-031-037>040-048>050-280500-
NORTHEAST WISCONSIN

CITY           SKY/WX    TMP DP  RH WIND       PRES   REMARKS
ANTIGO         FAIR      66  56  72 CALM      29.93S
SHAWANO        FAIR      71  65  81 CALM      29.89S
OCONTO         FAIR      62  60  94 CALM      29.88S
STURGEON BAY   FAIR      67  61  81 CALM      29.90S
GREEN BAY      FAIR      70  63  78 CALM      29.89R
MANITOWOC      NOT AVBL
APPLETON       PTCLDY    77  57  50 CALM      29.89R
CLINTONVILLE   FAIR      71  62  74 CALM      29.89S
OSHKOSH        FAIR      71  63  75 S5        29.89R
$$

WIZ032>034-041-042-053>061-280500-
SOUTHWEST WISCONSIN

CITY           SKY/WX    TMP DP  RH WIND       PRES   REMARKS
LA CROSSE      MOCLDY    75  62  64 SE6       29.86S
SPARTA         FAIR      65  64  97 CALM      29.89F
VIROQUA        FAIR      82  52  34 S5        29.91S HX  81
BOSCOBEL       FAIR      71  68  90 CALM      29.89R
PRAIRIE DU CHI FAIR      73  64  73 CALM      29.88S
PLATTEVILLE    FAIR      80  64  58 CALM      29.91S HX  82
$$

WIZ056-057-062-063-064-067-068-280500-
SOUTH CENTRAL WISCONSIN

CITY           SKY/WX    TMP DP  RH WIND       PRES   REMARKS
REEDSBURG      FAIR      70  65  86 CALM      29.90S
BARABOO/DELLS  FAIR      72  63  74 CALM      29.91S
LONE ROCK      FAIR      70  66  87 CALM      29.89R
MINERAL POINT  FAIR      81  61  50 CALM      29.92S HX  81
MADISON        FAIR      73  68  84 CALM      29.90R
MIDDLETON      FAIR      72  65  77 CALM      29.91R
WATERTOWN      FAIR      70  70 100 E3        29.91R
MONROE         FAIR      81  61  50 S5        29.91S HX  81
JANESVILLE     FAIR      75  63  64 CALM      29.90R
$$

WIZ051-052-058>065-066-070>072-280500-
SOUTHEAST WISCONSIN

CITY           SKY/WX    TMP DP  RH WIND       PRES   REMARKS
MILWAUKEE      FAIR      75  63  66 CALM      29.91R
WAUKESHA       FAIR      70  61  73 CALM      29.93S
MILWAUKEE/TIMM FAIR      70  61  73 CALM      29.92S
RACINE         MOCLDY    72  64  76 E6        29.93R
BURLINGTON     FAIR      69  65  88 CALM      29.92R
KENOSHA        FAIR      70  61  73 E6        29.92R
FOND DU LAC    FAIR      73  65  75 S6        29.90R
SHEBOYGAN      FAIR      68  63  84 CALM      29.90S
WEST BEND      FAIR      66  66 100 CALM      29.92S
JUNEAU         FAIR      72  67  86 E5        29.92S
$$

LSZ147-162-280500-
LAKE SUPERIOR

STATION/POSITION TIME  TEMP    WIND        PRES    WAVE
                       AIR SEA DIR/SP/G            HT/PER
                 (UTC) (F)     (DEG/KT/KT) (MB)    (FT/S)
W MID LAKE BUOY  0350   41 37   80/  4/  4 1011.6F   0
DEVILS ISLAND    0400   49      90/  8/  8 1011.3F
SAXON HARBOR     0340   62     210/  1/  2 1010.2F
$$

LMZ867-665-643>646-280500-
LAKE MICHIGAN

STATION/POSITION TIME  TEMP    WIND        PRES    WAVE
                       AIR SEA DIR/SP/G            HT/PER
                 (UTC) (F)     (DEG/KT/KT) (MB)    (FT/S)
N MID LAKE BUOY  0350   49 38  240/  6/  8 1012.4F   0
NORTHPORT PIER   0340   57      CALM  /  1 1012.2S
KEWAUNEE LAKESHO 0342   54     170/  2/  3 1011.9F
SHEBOYGAN LAKESH 0400   55     170/  7/  8 1012.4R
PORT WASHINGTON  0340   59      CALM  /  1 1013.9R
ATWATER BUOY     0307   54 52  320/  2/  2 1012.9    0
MILWAUKEE LAKESH 0350   51     150/  1/  2   N/A
S MID LAKE BUOY  0350   60 46  120/  4/  4 1013.1R   0
KENOSHA   LAKESH 0400   58                 1013.2
$$

TC  - TEMPERATURE IN CELSIUS
VSB - VISIBILITY IN STATUTE MILES
WCI - WIND CHILL INDEX
HX  - HEAT INDEX




USA.gov is the U.S. government's official web portal to all federal, state and local government web resources and services.